TimeEST,TemperatureF,Dew PointF,Humidity,Sea Level PressureIn,VisibilityMPH,Wind Direction,Wind SpeedMPH,Gust SpeedMPH,PrecipitationIn,Events,Conditions,WindDirDegrees,DateUTC
12:56 AM,62.1,55.9,80,30.18,10.0,South,8.1,-,N/A,,Clear,180,2013-02-11 05:56:00
1:56 AM,62.1,55.9,80,30.19,10.0,South,4.6,-,N/A,,Overcast,170,2013-02-11 06:56:00
2:56 AM,61.0,57.9,90,30.19,8.0,Calm,Calm,-,0.03,Rain,Light Rain,0,2013-02-11 07:56:00
3:56 AM,60.1,57.9,93,30.17,5.0,South,4.6,-,0.04,Rain,Rain,170,2013-02-11 08:56:00
4:56 AM,61.0,59.0,93,30.17,4.0,SSW,6.9,-,0.11,Rain,Rain,210,2013-02-11 09:56:00
5:56 AM,61.0,59.0,93,30.17,3.0,SSW,5.8,-,0.17,Rain,Rain,200,2013-02-11 10:56:00
6:36 AM,60.8,59.0,94,30.17,2.5,SSW,4.6,-,0.10,Rain,Rain,210,2013-02-11 11:36:00
6:56 AM,61.0,59.0,93,30.16,5.0,South,4.6,-,0.16,Rain,Light Rain,170,2013-02-11 11:56:00
7:25 AM,60.8,59.0,94,30.21,0.8,West,5.8,-,0.20,Rain-Thunderstorm,Heavy Thunderstorms and Rain,280,2013-02-11 12:25:00
7:43 AM,60.8,59.0,94,30.18,1.0,South,6.9,-,0.41,Rain,Heavy Rain,190,2013-02-11 12:43:00
7:56 AM,61.0,59.0,93,30.19,0.8,SSW,5.8,-,0.45,Rain,Rain,200,2013-02-11 12:56:00
8:28 AM,60.8,59.0,94,30.17,1.0,SSE,4.6,-,0.08,Rain,Light Rain,160,2013-02-11 13:28:00
8:38 AM,60.8,59.0,94,30.17,6.0,South,4.6,-,0.08,,Overcast,180,2013-02-11 13:38:00
8:56 AM,61.0,59.0,93,30.17,6.0,South,8.1,-,0.08,,Overcast,180,2013-02-11 13:56:00
9:56 AM,63.0,59.0,87,30.17,10.0,SSW,6.9,-,N/A,,Overcast,200,2013-02-11 14:56:00
10:56 AM,64.0,59.0,84,30.19,5.0,West,9.2,-,0.00,Rain,Light Rain,270,2013-02-11 15:56:00
11:22 AM,62.6,60.8,94,30.19,1.5,WNW,4.6,-,0.04,Rain,Rain,290,2013-02-11 16:22:00
11:56 AM,63.0,61.0,93,30.17,1.2,Calm,Calm,-,0.14,Rain,Rain,0,2013-02-11 16:56:00
12:21 PM,62.6,60.8,94,30.14,4.0,South,4.6,-,0.03,Rain,Light Rain,170,2013-02-11 17:21:00
12:56 PM,62.1,61.0,96,30.13,5.0,South,3.5,-,0.04,,Drizzle,190,2013-02-11 17:56:00
1:56 PM,63.0,61.0,93,30.10,4.0,Calm,Calm,-,0.01,,Drizzle,0,2013-02-11 18:56:00
2:56 PM,64.9,62.1,90,30.08,10.0,SSW,5.8,-,0.00,,Overcast,200,2013-02-11 19:56:00
3:56 PM,66.0,62.1,87,30.10,5.0,West,4.6,-,0.00,Rain,Light Rain,260,2013-02-11 20:56:00
4:48 PM,64.4,62.6,94,30.09,8.0,Calm,Calm,-,0.00,,Overcast,0,2013-02-11 21:48:00
4:56 PM,64.9,61.0,87,30.09,10.0,Calm,Calm,-,0.00,,Mostly Cloudy,0,2013-02-11 21:56:00
5:56 PM,64.0,62.1,93,30.09,7.0,Calm,Calm,-,0.01,,Overcast,0,2013-02-11 22:56:00
6:04 PM,64.4,62.6,94,30.09,7.0,West,4.6,-,0.00,Rain,Light Rain,260,2013-02-11 23:04:00
6:56 PM,63.0,61.0,93,30.10,2.5,NW,4.6,-,0.08,Rain,Heavy Rain,320,2013-02-11 23:56:00
7:11 PM,62.6,60.8,94,30.10,6.0,Calm,Calm,-,0.03,Rain,Light Rain,0,2013-02-12 00:11:00
7:56 PM,62.1,60.1,93,30.11,5.0,NW,4.6,-,0.11,Rain,Rain,310,2013-02-12 00:56:00
8:56 PM,62.1,59.0,90,30.11,6.0,NW,5.8,-,0.07,Rain,Rain,310,2013-02-12 01:56:00
9:56 PM,60.1,59.0,96,30.10,3.0,SSE,3.5,-,0.17,Rain,Heavy Rain,160,2013-02-12 02:56:00
10:08 PM,60.8,59.0,94,30.09,2.5,South,4.6,-,0.03,Rain,Rain,180,2013-02-12 03:08:00
10:23 PM,60.8,57.2,88,30.09,3.0,SSW,4.6,-,0.06,Rain,Rain,200,2013-02-12 03:23:00
10:56 PM,60.1,57.9,93,30.10,7.0,NW,5.8,-,0.07,Rain,Light Rain,310,2013-02-12 03:56:00
11:06 PM,60.8,57.2,88,30.11,4.0,NW,6.9,-,0.03,Rain,Heavy Rain,320,2013-02-12 04:06:00
11:28 PM,60.8,57.2,88,30.11,4.0,NW,3.5,-,0.05,Rain,Light Rain,320,2013-02-12 04:28:00
11:52 PM,59.0,57.2,94,30.10,4.0,West,3.5,-,0.09,Rain,Light Rain,260,2013-02-12 04:52:00
11:56 PM,59.0,57.9,96,30.11,6.0,West,3.5,-,0.09,Rain,Light Rain,270,2013-02-12 04:56:00